<?xml version="1.0" encoding="UTF-8" standalone="no" ?>
<gpx xmlns="http://www.topografix.com/GPX/1/1" xmlns:xsi="http://www.w3.org/2001/XMLSchema-instance" xsi:schemaLocation="http://www.topografix.com/GPX/1/1 http://www.topografix.com/GPX/1/1/gpx.xsd" version="1.1" creator="VisuGPX - https://www.visugpx.com">
  <metadata>
    <name>refuge de l'Oule à Aulon par cap de Pède, Néouvielle, par NATAKA</name>
  </metadata>
  <trk>
    <name><![CDATA[13911884-refuge de l'Oule à Aulon par cap de Pède]]></name>
    <trkseg>
      <trkpt lat="42.8241" lon="0.20704">
        <ele>1808</ele>
        <time>2021-11-06T13:59:42Z</time>
      </trkpt>
      <trkpt lat="42.82397" lon="0.20719">
        <ele>1809</ele>
        <time>2021-11-06T13:59:56Z</time>
      </trkpt>
      <trkpt lat="42.82389" lon="0.20725">
        <ele>1809</ele>
        <time>2021-11-06T14:00:03Z</time>
      </trkpt>
      <trkpt lat="42.8238" lon="0.2073">
        <ele>1809</ele>
        <time>2021-11-06T14:00:11Z</time>
      </trkpt>
      <trkpt lat="42.82378" lon="0.20734">
        <ele>1810</ele>
        <time>2021-11-06T14:00:14Z</time>
      </trkpt>
      <trkpt lat="42.82386" lon="0.20735">
        <ele>1811</ele>
        <time>2021-11-06T14:00:20Z</time>
      </trkpt>
      <trkpt lat="42.8245" lon="0.20721">
        <ele>1821</ele>
        <time>2021-11-06T14:01:12Z</time>
      </trkpt>
      <trkpt lat="42.8246" lon="0.20722">
        <ele>1823</ele>
        <time>2021-11-06T14:01:20Z</time>
      </trkpt>
      <trkpt lat="42.82465" lon="0.20721">
        <ele>1824</ele>
        <time>2021-11-06T14:01:24Z</time>
      </trkpt>
      <trkpt lat="42.82472" lon="0.2072">
        <ele>1825</ele>
        <time>2021-11-06T14:01:30Z</time>
      </trkpt>
      <trkpt lat="42.82474" lon="0.20749">
        <ele>1834</ele>
        <time>2021-11-06T14:01:47Z</time>
      </trkpt>
      <trkpt lat="42.82475" lon="0.20752">
        <ele>1835</ele>
        <time>2021-11-06T14:01:49Z</time>
      </trkpt>
      <trkpt lat="42.82505" lon="0.20741">
        <ele>1840</ele>
        <time>2021-11-06T14:02:14Z</time>
      </trkpt>
      <trkpt lat="42.82541" lon="0.20707">
        <ele>1842</ele>
        <time>2021-11-06T14:02:49Z</time>
      </trkpt>
      <trkpt lat="42.82584" lon="0.2066">
        <ele>1835</ele>
        <time>2021-11-06T14:03:33Z</time>
      </trkpt>
      <trkpt lat="42.82597" lon="0.20648">
        <ele>1836</ele>
        <time>2021-11-06T14:03:45Z</time>
      </trkpt>
      <trkpt lat="42.82666" lon="0.20593">
        <ele>1835</ele>
        <time>2021-11-06T14:04:49Z</time>
      </trkpt>
      <trkpt lat="42.82678" lon="0.20585">
        <ele>1833</ele>
        <time>2021-11-06T14:05:00Z</time>
      </trkpt>
      <trkpt lat="42.82697" lon="0.20576">
        <ele>1835</ele>
        <time>2021-11-06T14:05:16Z</time>
      </trkpt>
      <trkpt lat="42.82724" lon="0.20558">
        <ele>1835</ele>
        <time>2021-11-06T14:05:40Z</time>
      </trkpt>
      <trkpt lat="42.8274" lon="0.20552">
        <ele>1837</ele>
        <time>2021-11-06T14:05:53Z</time>
      </trkpt>
      <trkpt lat="42.82762" lon="0.20548">
        <ele>1836</ele>
        <time>2021-11-06T14:06:11Z</time>
      </trkpt>
      <trkpt lat="42.82777" lon="0.20551">
        <ele>1837</ele>
        <time>2021-11-06T14:06:23Z</time>
      </trkpt>
      <trkpt lat="42.82824" lon="0.20573">
        <ele>1843</ele>
        <time>2021-11-06T14:07:03Z</time>
      </trkpt>
      <trkpt lat="42.82841" lon="0.20588">
        <ele>1847</ele>
        <time>2021-11-06T14:07:19Z</time>
      </trkpt>
      <trkpt lat="42.82848" lon="0.20597">
        <ele>1850</ele>
        <time>2021-11-06T14:07:27Z</time>
      </trkpt>
      <trkpt lat="42.82851" lon="0.20605">
        <ele>1853</ele>
        <time>2021-11-06T14:07:32Z</time>
      </trkpt>
      <trkpt lat="42.82849" lon="0.20625">
        <ele>1859</ele>
        <time>2021-11-06T14:07:44Z</time>
      </trkpt>
      <trkpt lat="42.82837" lon="0.20646">
        <ele>1866</ele>
        <time>2021-11-06T14:08:00Z</time>
      </trkpt>
      <trkpt lat="42.82828" lon="0.20649">
        <ele>1867</ele>
        <time>2021-11-06T14:08:07Z</time>
      </trkpt>
      <trkpt lat="42.82814" lon="0.20638">
        <ele>1866</ele>
        <time>2021-11-06T14:08:20Z</time>
      </trkpt>
      <trkpt lat="42.82806" lon="0.20634">
        <ele>1866</ele>
        <time>2021-11-06T14:08:27Z</time>
      </trkpt>
      <trkpt lat="42.82797" lon="0.20637">
        <ele>1868</ele>
        <time>2021-11-06T14:08:34Z</time>
      </trkpt>
      <trkpt lat="42.82788" lon="0.20643">
        <ele>1872</ele>
        <time>2021-11-06T14:08:42Z</time>
      </trkpt>
      <trkpt lat="42.82786" lon="0.20649">
        <ele>1875</ele>
        <time>2021-11-06T14:08:46Z</time>
      </trkpt>
      <trkpt lat="42.8279" lon="0.20655">
        <ele>1876</ele>
        <time>2021-11-06T14:08:51Z</time>
      </trkpt>
      <trkpt lat="42.82792" lon="0.20662">
        <ele>1878</ele>
        <time>2021-11-06T14:08:55Z</time>
      </trkpt>
      <trkpt lat="42.82792" lon="0.20674">
        <ele>1882</ele>
        <time>2021-11-06T14:09:03Z</time>
      </trkpt>
      <trkpt lat="42.82779" lon="0.20692">
        <ele>1889</ele>
        <time>2021-11-06T14:09:17Z</time>
      </trkpt>
      <trkpt lat="42.82777" lon="0.20709">
        <ele>1894</ele>
        <time>2021-11-06T14:09:27Z</time>
      </trkpt>
      <trkpt lat="42.82778" lon="0.20717">
        <ele>1897</ele>
        <time>2021-11-06T14:09:32Z</time>
      </trkpt>
      <trkpt lat="42.82781" lon="0.20724">
        <ele>1898</ele>
        <time>2021-11-06T14:09:37Z</time>
      </trkpt>
      <trkpt lat="42.82803" lon="0.20745">
        <ele>1903</ele>
        <time>2021-11-06T14:09:58Z</time>
      </trkpt>
      <trkpt lat="42.82816" lon="0.2076">
        <ele>1907</ele>
        <time>2021-11-06T14:10:12Z</time>
      </trkpt>
      <trkpt lat="42.82828" lon="0.20784">
        <ele>1916</ele>
        <time>2021-11-06T14:10:29Z</time>
      </trkpt>
      <trkpt lat="42.82832" lon="0.20787">
        <ele>1917</ele>
        <time>2021-11-06T14:10:33Z</time>
      </trkpt>
      <trkpt lat="42.82858" lon="0.20794">
        <ele>1922</ele>
        <time>2021-11-06T14:10:54Z</time>
      </trkpt>
      <trkpt lat="42.82873" lon="0.20792">
        <ele>1923</ele>
        <time>2021-11-06T14:11:06Z</time>
      </trkpt>
      <trkpt lat="42.82914" lon="0.20807">
        <ele>1934</ele>
        <time>2021-11-06T14:11:40Z</time>
      </trkpt>
      <trkpt lat="42.82924" lon="0.20808">
        <ele>1937</ele>
        <time>2021-11-06T14:11:48Z</time>
      </trkpt>
      <trkpt lat="42.82928" lon="0.20811">
        <ele>1939</ele>
        <time>2021-11-06T14:11:52Z</time>
      </trkpt>
      <trkpt lat="42.82928" lon="0.20816">
        <ele>1941</ele>
        <time>2021-11-06T14:11:55Z</time>
      </trkpt>
      <trkpt lat="42.82926" lon="0.2082">
        <ele>1943</ele>
        <time>2021-11-06T14:11:58Z</time>
      </trkpt>
      <trkpt lat="42.82912" lon="0.2083">
        <ele>1944</ele>
        <time>2021-11-06T14:12:10Z</time>
      </trkpt>
      <trkpt lat="42.82888" lon="0.20855">
        <ele>1950</ele>
        <time>2021-11-06T14:12:34Z</time>
      </trkpt>
      <trkpt lat="42.82879" lon="0.20873">
        <ele>1955</ele>
        <time>2021-11-06T14:12:47Z</time>
      </trkpt>
      <trkpt lat="42.82859" lon="0.20879">
        <ele>1954</ele>
        <time>2021-11-06T14:13:04Z</time>
      </trkpt>
      <trkpt lat="42.82854" lon="0.20887">
        <ele>1956</ele>
        <time>2021-11-06T14:13:10Z</time>
      </trkpt>
      <trkpt lat="42.82851" lon="0.20899">
        <ele>1960</ele>
        <time>2021-11-06T14:13:17Z</time>
      </trkpt>
      <trkpt lat="42.8285" lon="0.20908">
        <ele>1963</ele>
        <time>2021-11-06T14:13:23Z</time>
      </trkpt>
      <trkpt lat="42.82847" lon="0.20911">
        <ele>1964</ele>
        <time>2021-11-06T14:13:26Z</time>
      </trkpt>
      <trkpt lat="42.82842" lon="0.20912">
        <ele>1964</ele>
        <time>2021-11-06T14:13:30Z</time>
      </trkpt>
      <trkpt lat="42.82835" lon="0.20907">
        <ele>1961</ele>
        <time>2021-11-06T14:13:36Z</time>
      </trkpt>
      <trkpt lat="42.82825" lon="0.20908">
        <ele>1961</ele>
        <time>2021-11-06T14:13:44Z</time>
      </trkpt>
      <trkpt lat="42.82803" lon="0.2092">
        <ele>1963</ele>
        <time>2021-11-06T14:14:03Z</time>
      </trkpt>
      <trkpt lat="42.82773" lon="0.20931">
        <ele>1965</ele>
        <time>2021-11-06T14:14:28Z</time>
      </trkpt>
      <trkpt lat="42.82755" lon="0.20941">
        <ele>1966</ele>
        <time>2021-11-06T14:14:43Z</time>
      </trkpt>
      <trkpt lat="42.82717" lon="0.2097">
        <ele>1974</ele>
        <time>2021-11-06T14:15:18Z</time>
      </trkpt>
      <trkpt lat="42.82706" lon="0.20982">
        <ele>1978</ele>
        <time>2021-11-06T14:15:30Z</time>
      </trkpt>
      <trkpt lat="42.82695" lon="0.20999">
        <ele>1983</ele>
        <time>2021-11-06T14:15:43Z</time>
      </trkpt>
      <trkpt lat="42.8269" lon="0.21">
        <ele>1983</ele>
        <time>2021-11-06T14:15:47Z</time>
      </trkpt>
      <trkpt lat="42.82681" lon="0.20998">
        <ele>1983</ele>
        <time>2021-11-06T14:15:54Z</time>
      </trkpt>
      <trkpt lat="42.82676" lon="0.21003">
        <ele>1984</ele>
        <time>2021-11-06T14:15:59Z</time>
      </trkpt>
      <trkpt lat="42.82649" lon="0.21036">
        <ele>1985</ele>
        <time>2021-11-06T14:16:28Z</time>
      </trkpt>
      <trkpt lat="42.82648" lon="0.21051">
        <ele>1987</ele>
        <time>2021-11-06T14:16:37Z</time>
      </trkpt>
      <trkpt lat="42.82653" lon="0.21058">
        <ele>1989</ele>
        <time>2021-11-06T14:16:43Z</time>
      </trkpt>
      <trkpt lat="42.82685" lon="0.21086">
        <ele>1996</ele>
        <time>2021-11-06T14:17:13Z</time>
      </trkpt>
      <trkpt lat="42.82703" lon="0.2111">
        <ele>2000</ele>
        <time>2021-11-06T14:17:33Z</time>
      </trkpt>
      <trkpt lat="42.82742" lon="0.21176">
        <ele>2011</ele>
        <time>2021-11-06T14:18:23Z</time>
      </trkpt>
      <trkpt lat="42.82763" lon="0.2123">
        <ele>2014</ele>
        <time>2021-11-06T14:18:59Z</time>
      </trkpt>
      <trkpt lat="42.82778" lon="0.2131">
        <ele>2020</ele>
        <time>2021-11-06T14:19:47Z</time>
      </trkpt>
      <trkpt lat="42.82779" lon="0.21346">
        <ele>2022</ele>
        <time>2021-11-06T14:20:09Z</time>
      </trkpt>
      <trkpt lat="42.82775" lon="0.21402">
        <ele>2023</ele>
        <time>2021-11-06T14:20:42Z</time>
      </trkpt>
      <trkpt lat="42.82769" lon="0.21459">
        <ele>2023</ele>
        <time>2021-11-06T14:21:16Z</time>
      </trkpt>
      <trkpt lat="42.82772" lon="0.215">
        <ele>2024</ele>
        <time>2021-11-06T14:21:40Z</time>
      </trkpt>
      <trkpt lat="42.8277" lon="0.21536">
        <ele>2024</ele>
        <time>2021-11-06T14:22:01Z</time>
      </trkpt>
      <trkpt lat="42.82774" lon="0.21572">
        <ele>2026</ele>
        <time>2021-11-06T14:22:22Z</time>
      </trkpt>
      <trkpt lat="42.82774" lon="0.21642">
        <ele>2025</ele>
        <time>2021-11-06T14:23:03Z</time>
      </trkpt>
      <trkpt lat="42.82773" lon="0.21667">
        <ele>2024</ele>
        <time>2021-11-06T14:23:18Z</time>
      </trkpt>
      <trkpt lat="42.82768" lon="0.21701">
        <ele>2025</ele>
        <time>2021-11-06T14:23:38Z</time>
      </trkpt>
      <trkpt lat="42.82765" lon="0.21746">
        <ele>2028</ele>
        <time>2021-11-06T14:24:05Z</time>
      </trkpt>
      <trkpt lat="42.82759" lon="0.21778">
        <ele>2028</ele>
        <time>2021-11-06T14:24:24Z</time>
      </trkpt>
      <trkpt lat="42.82752" lon="0.21793">
        <ele>2027</ele>
        <time>2021-11-06T14:24:35Z</time>
      </trkpt>
      <trkpt lat="42.8275" lon="0.21805">
        <ele>2027</ele>
        <time>2021-11-06T14:24:42Z</time>
      </trkpt>
      <trkpt lat="42.8275" lon="0.21821">
        <ele>2028</ele>
        <time>2021-11-06T14:24:51Z</time>
      </trkpt>
      <trkpt lat="42.82755" lon="0.21841">
        <ele>2029</ele>
        <time>2021-11-06T14:25:04Z</time>
      </trkpt>
      <trkpt lat="42.82778" lon="0.21919">
        <ele>2035</ele>
        <time>2021-11-06T14:25:53Z</time>
      </trkpt>
      <trkpt lat="42.82787" lon="0.21974">
        <ele>2034</ele>
        <time>2021-11-06T14:26:26Z</time>
      </trkpt>
      <trkpt lat="42.82811" lon="0.22058">
        <ele>2037</ele>
        <time>2021-11-06T14:27:19Z</time>
      </trkpt>
      <trkpt lat="42.82819" lon="0.22122">
        <ele>2040</ele>
        <time>2021-11-06T14:27:57Z</time>
      </trkpt>
      <trkpt lat="42.82843" lon="0.22174">
        <ele>2044</ele>
        <time>2021-11-06T14:28:33Z</time>
      </trkpt>
      <trkpt lat="42.82847" lon="0.22188">
        <ele>2046</ele>
        <time>2021-11-06T14:28:42Z</time>
      </trkpt>
      <trkpt lat="42.82848" lon="0.22198">
        <ele>2046</ele>
        <time>2021-11-06T14:28:48Z</time>
      </trkpt>
      <trkpt lat="42.82833" lon="0.22236">
        <ele>2047</ele>
        <time>2021-11-06T14:29:14Z</time>
      </trkpt>
      <trkpt lat="42.82832" lon="0.22256">
        <ele>2048</ele>
        <time>2021-11-06T14:29:25Z</time>
      </trkpt>
      <trkpt lat="42.82843" lon="0.22291">
        <ele>2050</ele>
        <time>2021-11-06T14:29:48Z</time>
      </trkpt>
      <trkpt lat="42.82848" lon="0.22323">
        <ele>2051</ele>
        <time>2021-11-06T14:30:07Z</time>
      </trkpt>
      <trkpt lat="42.82852" lon="0.22383">
        <ele>2056</ele>
        <time>2021-11-06T14:30:42Z</time>
      </trkpt>
      <trkpt lat="42.82849" lon="0.22396">
        <ele>2057</ele>
        <time>2021-11-06T14:30:50Z</time>
      </trkpt>
      <trkpt lat="42.82848" lon="0.22443">
        <ele>2063</ele>
        <time>2021-11-06T14:31:18Z</time>
      </trkpt>
      <trkpt lat="42.8286" lon="0.22582">
        <ele>2086</ele>
        <time>2021-11-06T14:32:40Z</time>
      </trkpt>
      <trkpt lat="42.82879" lon="0.2269">
        <ele>2099</ele>
        <time>2021-11-06T14:33:45Z</time>
      </trkpt>
      <trkpt lat="42.829" lon="0.22818">
        <ele>2115</ele>
        <time>2021-11-06T14:35:02Z</time>
      </trkpt>
      <trkpt lat="42.82917" lon="0.22886">
        <ele>2121</ele>
        <time>2021-11-06T14:35:44Z</time>
      </trkpt>
      <trkpt lat="42.82944" lon="0.22951">
        <ele>2136</ele>
        <time>2021-11-06T14:36:28Z</time>
      </trkpt>
      <trkpt lat="42.83023" lon="0.23107">
        <ele>2158</ele>
        <time>2021-11-06T14:38:20Z</time>
      </trkpt>
      <trkpt lat="42.83033" lon="0.23119">
        <ele>2162</ele>
        <time>2021-11-06T14:38:30Z</time>
      </trkpt>
      <trkpt lat="42.83036" lon="0.23129">
        <ele>2163</ele>
        <time>2021-11-06T14:38:37Z</time>
      </trkpt>
      <trkpt lat="42.83037" lon="0.23139">
        <ele>2164</ele>
        <time>2021-11-06T14:38:43Z</time>
      </trkpt>
      <trkpt lat="42.83063" lon="0.23207">
        <ele>2175</ele>
        <time>2021-11-06T14:39:28Z</time>
      </trkpt>
      <trkpt lat="42.83072" lon="0.23242">
        <ele>2178</ele>
        <time>2021-11-06T14:39:49Z</time>
      </trkpt>
      <trkpt lat="42.83081" lon="0.23268">
        <ele>2180</ele>
        <time>2021-11-06T14:40:06Z</time>
      </trkpt>
      <trkpt lat="42.83104" lon="0.23309">
        <ele>2188</ele>
        <time>2021-11-06T14:40:37Z</time>
      </trkpt>
      <trkpt lat="42.83125" lon="0.2336">
        <ele>2195</ele>
        <time>2021-11-06T14:41:11Z</time>
      </trkpt>
      <trkpt lat="42.83136" lon="0.23395">
        <ele>2197</ele>
        <time>2021-11-06T14:41:33Z</time>
      </trkpt>
      <trkpt lat="42.83143" lon="0.23407">
        <ele>2198</ele>
        <time>2021-11-06T14:41:42Z</time>
      </trkpt>
      <trkpt lat="42.83158" lon="0.23421">
        <ele>2199</ele>
        <time>2021-11-06T14:41:57Z</time>
      </trkpt>
      <trkpt lat="42.8317" lon="0.23442">
        <ele>2202</ele>
        <time>2021-11-06T14:42:12Z</time>
      </trkpt>
      <trkpt lat="42.83197" lon="0.23472">
        <ele>2208</ele>
        <time>2021-11-06T14:42:40Z</time>
      </trkpt>
      <trkpt lat="42.83236" lon="0.23536">
        <ele>2215</ele>
        <time>2021-11-06T14:43:29Z</time>
      </trkpt>
      <trkpt lat="42.83243" lon="0.23541">
        <ele>2215</ele>
        <time>2021-11-06T14:43:36Z</time>
      </trkpt>
      <trkpt lat="42.8331" lon="0.23649">
        <ele>2213</ele>
        <time>2021-11-06T14:44:59Z</time>
      </trkpt>
      <trkpt lat="42.83303" lon="0.23658">
        <ele>2213</ele>
        <time>2021-11-06T14:45:06Z</time>
      </trkpt>
      <trkpt lat="42.8331" lon="0.23649">
        <ele>2213</ele>
        <time>2021-11-06T14:45:14Z</time>
      </trkpt>
      <trkpt lat="42.83353" lon="0.23666">
        <ele>2207</ele>
        <time>2021-11-06T14:45:50Z</time>
      </trkpt>
      <trkpt lat="42.8337" lon="0.23682">
        <ele>2202</ele>
        <time>2021-11-06T14:46:06Z</time>
      </trkpt>
      <trkpt lat="42.83394" lon="0.23695">
        <ele>2197</ele>
        <time>2021-11-06T14:46:27Z</time>
      </trkpt>
      <trkpt lat="42.83443" lon="0.23715">
        <ele>2189</ele>
        <time>2021-11-06T14:47:08Z</time>
      </trkpt>
      <trkpt lat="42.83449" lon="0.23721">
        <ele>2187</ele>
        <time>2021-11-06T14:47:14Z</time>
      </trkpt>
      <trkpt lat="42.83431" lon="0.23697">
        <ele>2194</ele>
        <time>2021-11-06T14:47:34Z</time>
      </trkpt>
      <trkpt lat="42.83419" lon="0.23687">
        <ele>2197</ele>
        <time>2021-11-06T14:47:45Z</time>
      </trkpt>
      <trkpt lat="42.83442" lon="0.23692">
        <ele>2195</ele>
        <time>2021-11-06T14:48:04Z</time>
      </trkpt>
      <trkpt lat="42.83451" lon="0.23696">
        <ele>2193</ele>
        <time>2021-11-06T14:48:12Z</time>
      </trkpt>
      <trkpt lat="42.83458" lon="0.237">
        <ele>2192</ele>
        <time>2021-11-06T14:48:18Z</time>
      </trkpt>
      <trkpt lat="42.83473" lon="0.23715">
        <ele>2187</ele>
        <time>2021-11-06T14:48:33Z</time>
      </trkpt>
      <trkpt lat="42.83484" lon="0.23717">
        <ele>2186</ele>
        <time>2021-11-06T14:48:42Z</time>
      </trkpt>
      <trkpt lat="42.83516" lon="0.23737">
        <ele>2182</ele>
        <time>2021-11-06T14:49:10Z</time>
      </trkpt>
      <trkpt lat="42.83531" lon="0.23752">
        <ele>2181</ele>
        <time>2021-11-06T14:49:25Z</time>
      </trkpt>
      <trkpt lat="42.83547" lon="0.23773">
        <ele>2180</ele>
        <time>2021-11-06T14:49:42Z</time>
      </trkpt>
      <trkpt lat="42.83552" lon="0.23776">
        <ele>2180</ele>
        <time>2021-11-06T14:49:47Z</time>
      </trkpt>
      <trkpt lat="42.83563" lon="0.23793">
        <ele>2178</ele>
        <time>2021-11-06T14:50:00Z</time>
      </trkpt>
      <trkpt lat="42.83567" lon="0.23805">
        <ele>2176</ele>
        <time>2021-11-06T14:50:08Z</time>
      </trkpt>
      <trkpt lat="42.83568" lon="0.23817">
        <ele>2173</ele>
        <time>2021-11-06T14:50:15Z</time>
      </trkpt>
      <trkpt lat="42.83572" lon="0.23827">
        <ele>2171</ele>
        <time>2021-11-06T14:50:22Z</time>
      </trkpt>
      <trkpt lat="42.83574" lon="0.23855">
        <ele>2168</ele>
        <time>2021-11-06T14:50:38Z</time>
      </trkpt>
      <trkpt lat="42.83573" lon="0.23871">
        <ele>2166</ele>
        <time>2021-11-06T14:50:48Z</time>
      </trkpt>
      <trkpt lat="42.8359" lon="0.23973">
        <ele>2161</ele>
        <time>2021-11-06T14:51:49Z</time>
      </trkpt>
      <trkpt lat="42.83599" lon="0.24">
        <ele>2162</ele>
        <time>2021-11-06T14:52:06Z</time>
      </trkpt>
      <trkpt lat="42.83607" lon="0.2405">
        <ele>2159</ele>
        <time>2021-11-06T14:52:36Z</time>
      </trkpt>
      <trkpt lat="42.83617" lon="0.24151">
        <ele>2152</ele>
        <time>2021-11-06T14:53:36Z</time>
      </trkpt>
      <trkpt lat="42.83616" lon="0.24186">
        <ele>2147</ele>
        <time>2021-11-06T14:53:57Z</time>
      </trkpt>
      <trkpt lat="42.8362" lon="0.24228">
        <ele>2144</ele>
        <time>2021-11-06T14:54:22Z</time>
      </trkpt>
      <trkpt lat="42.83623" lon="0.24241">
        <ele>2143</ele>
        <time>2021-11-06T14:54:30Z</time>
      </trkpt>
      <trkpt lat="42.83643" lon="0.2429">
        <ele>2145</ele>
        <time>2021-11-06T14:55:03Z</time>
      </trkpt>
      <trkpt lat="42.83649" lon="0.2432">
        <ele>2143</ele>
        <time>2021-11-06T14:55:21Z</time>
      </trkpt>
      <trkpt lat="42.83673" lon="0.24336">
        <ele>2147</ele>
        <time>2021-11-06T14:55:42Z</time>
      </trkpt>
      <trkpt lat="42.8368" lon="0.24346">
        <ele>2147</ele>
        <time>2021-11-06T14:55:50Z</time>
      </trkpt>
      <trkpt lat="42.83685" lon="0.24359">
        <ele>2147</ele>
        <time>2021-11-06T14:55:59Z</time>
      </trkpt>
      <trkpt lat="42.83695" lon="0.24376">
        <ele>2146</ele>
        <time>2021-11-06T14:56:12Z</time>
      </trkpt>
      <trkpt lat="42.83702" lon="0.24397">
        <ele>2145</ele>
        <time>2021-11-06T14:56:25Z</time>
      </trkpt>
      <trkpt lat="42.83703" lon="0.24419">
        <ele>2142</ele>
        <time>2021-11-06T14:56:38Z</time>
      </trkpt>
      <trkpt lat="42.83702" lon="0.24461">
        <ele>2136</ele>
        <time>2021-11-06T14:57:03Z</time>
      </trkpt>
      <trkpt lat="42.83704" lon="0.24476">
        <ele>2134</ele>
        <time>2021-11-06T14:57:12Z</time>
      </trkpt>
      <trkpt lat="42.83705" lon="0.24522">
        <ele>2129</ele>
        <time>2021-11-06T14:57:39Z</time>
      </trkpt>
      <trkpt lat="42.8371" lon="0.2456">
        <ele>2127</ele>
        <time>2021-11-06T14:58:02Z</time>
      </trkpt>
      <trkpt lat="42.8371" lon="0.24589">
        <ele>2124</ele>
        <time>2021-11-06T14:58:19Z</time>
      </trkpt>
      <trkpt lat="42.83676" lon="0.24701">
        <ele>2106</ele>
        <time>2021-11-06T14:59:30Z</time>
      </trkpt>
      <trkpt lat="42.83673" lon="0.24737">
        <ele>2101</ele>
        <time>2021-11-06T14:59:51Z</time>
      </trkpt>
      <trkpt lat="42.83674" lon="0.24751">
        <ele>2099</ele>
        <time>2021-11-06T14:59:59Z</time>
      </trkpt>
      <trkpt lat="42.83677" lon="0.24765">
        <ele>2096</ele>
        <time>2021-11-06T15:00:08Z</time>
      </trkpt>
      <trkpt lat="42.83679" lon="0.24833">
        <ele>2084</ele>
        <time>2021-11-06T15:00:48Z</time>
      </trkpt>
      <trkpt lat="42.83688" lon="0.24882">
        <ele>2069</ele>
        <time>2021-11-06T15:01:17Z</time>
      </trkpt>
      <trkpt lat="42.83696" lon="0.24978">
        <ele>2055</ele>
        <time>2021-11-06T15:02:14Z</time>
      </trkpt>
      <trkpt lat="42.83752" lon="0.24979">
        <ele>2040</ele>
        <time>2021-11-06T15:02:59Z</time>
      </trkpt>
      <trkpt lat="42.83782" lon="0.25002">
        <ele>2033</ele>
        <time>2021-11-06T15:03:27Z</time>
      </trkpt>
      <trkpt lat="42.8379" lon="0.25011">
        <ele>2031</ele>
        <time>2021-11-06T15:03:35Z</time>
      </trkpt>
      <trkpt lat="42.838" lon="0.25033">
        <ele>2029</ele>
        <time>2021-11-06T15:03:50Z</time>
      </trkpt>
      <trkpt lat="42.83793" lon="0.2508">
        <ele>2029</ele>
        <time>2021-11-06T15:04:18Z</time>
      </trkpt>
      <trkpt lat="42.83792" lon="0.25109">
        <ele>2029</ele>
        <time>2021-11-06T15:04:35Z</time>
      </trkpt>
      <trkpt lat="42.83798" lon="0.25165">
        <ele>2029</ele>
        <time>2021-11-06T15:05:09Z</time>
      </trkpt>
      <trkpt lat="42.83796" lon="0.25207">
        <ele>2025</ele>
        <time>2021-11-06T15:05:33Z</time>
      </trkpt>
      <trkpt lat="42.83797" lon="0.25226">
        <ele>2023</ele>
        <time>2021-11-06T15:05:44Z</time>
      </trkpt>
      <trkpt lat="42.83806" lon="0.25255">
        <ele>2019</ele>
        <time>2021-11-06T15:06:03Z</time>
      </trkpt>
      <trkpt lat="42.83809" lon="0.25278">
        <ele>2017</ele>
        <time>2021-11-06T15:06:17Z</time>
      </trkpt>
      <trkpt lat="42.83806" lon="0.25296">
        <ele>2016</ele>
        <time>2021-11-06T15:06:27Z</time>
      </trkpt>
      <trkpt lat="42.83803" lon="0.25415">
        <ele>2005</ele>
        <time>2021-11-06T15:07:37Z</time>
      </trkpt>
      <trkpt lat="42.83785" lon="0.25658">
        <ele>1971</ele>
        <time>2021-11-06T15:10:01Z</time>
      </trkpt>
      <trkpt lat="42.83775" lon="0.257">
        <ele>1967</ele>
        <time>2021-11-06T15:10:27Z</time>
      </trkpt>
      <trkpt lat="42.8377" lon="0.25713">
        <ele>1966</ele>
        <time>2021-11-06T15:10:35Z</time>
      </trkpt>
      <trkpt lat="42.83805" lon="0.25694">
        <ele>1968</ele>
        <time>2021-11-06T15:11:05Z</time>
      </trkpt>
      <trkpt lat="42.83834" lon="0.25693">
        <ele>1968</ele>
        <time>2021-11-06T15:11:29Z</time>
      </trkpt>
      <trkpt lat="42.83895" lon="0.25707">
        <ele>1964</ele>
        <time>2021-11-06T15:12:18Z</time>
      </trkpt>
      <trkpt lat="42.83914" lon="0.25718">
        <ele>1959</ele>
        <time>2021-11-06T15:12:35Z</time>
      </trkpt>
      <trkpt lat="42.83935" lon="0.2572">
        <ele>1951</ele>
        <time>2021-11-06T15:12:52Z</time>
      </trkpt>
      <trkpt lat="42.83951" lon="0.25736">
        <ele>1939</ele>
        <time>2021-11-06T15:13:08Z</time>
      </trkpt>
      <trkpt lat="42.83967" lon="0.25734">
        <ele>1933</ele>
        <time>2021-11-06T15:13:20Z</time>
      </trkpt>
      <trkpt lat="42.83974" lon="0.25727">
        <ele>1932</ele>
        <time>2021-11-06T15:13:27Z</time>
      </trkpt>
      <trkpt lat="42.83977" lon="0.25721">
        <ele>1933</ele>
        <time>2021-11-06T15:13:32Z</time>
      </trkpt>
      <trkpt lat="42.83977" lon="0.25716">
        <ele>1934</ele>
        <time>2021-11-06T15:13:35Z</time>
      </trkpt>
      <trkpt lat="42.83979" lon="0.25703">
        <ele>1937</ele>
        <time>2021-11-06T15:13:42Z</time>
      </trkpt>
      <trkpt lat="42.8399" lon="0.25677">
        <ele>1940</ele>
        <time>2021-11-06T15:14:00Z</time>
      </trkpt>
      <trkpt lat="42.83998" lon="0.25672">
        <ele>1937</ele>
        <time>2021-11-06T15:14:07Z</time>
      </trkpt>
      <trkpt lat="42.84013" lon="0.25673">
        <ele>1927</ele>
        <time>2021-11-06T15:14:19Z</time>
      </trkpt>
      <trkpt lat="42.84017" lon="0.25659">
        <ele>1927</ele>
        <time>2021-11-06T15:14:28Z</time>
      </trkpt>
      <trkpt lat="42.84023" lon="0.25645">
        <ele>1926</ele>
        <time>2021-11-06T15:14:37Z</time>
      </trkpt>
      <trkpt lat="42.84024" lon="0.25628">
        <ele>1930</ele>
        <time>2021-11-06T15:14:47Z</time>
      </trkpt>
      <trkpt lat="42.84027" lon="0.25601">
        <ele>1935</ele>
        <time>2021-11-06T15:15:03Z</time>
      </trkpt>
      <trkpt lat="42.84047" lon="0.25557">
        <ele>1928</ele>
        <time>2021-11-06T15:15:34Z</time>
      </trkpt>
      <trkpt lat="42.84065" lon="0.25494">
        <ele>1922</ele>
        <time>2021-11-06T15:16:13Z</time>
      </trkpt>
      <trkpt lat="42.84078" lon="0.25479">
        <ele>1917</ele>
        <time>2021-11-06T15:16:27Z</time>
      </trkpt>
      <trkpt lat="42.84087" lon="0.25446">
        <ele>1916</ele>
        <time>2021-11-06T15:16:48Z</time>
      </trkpt>
      <trkpt lat="42.84087" lon="0.25427">
        <ele>1917</ele>
        <time>2021-11-06T15:16:59Z</time>
      </trkpt>
      <trkpt lat="42.84079" lon="0.25349">
        <ele>1924</ele>
        <time>2021-11-06T15:17:45Z</time>
      </trkpt>
      <trkpt lat="42.84082" lon="0.25343">
        <ele>1924</ele>
        <time>2021-11-06T15:17:49Z</time>
      </trkpt>
      <trkpt lat="42.84088" lon="0.25302">
        <ele>1928</ele>
        <time>2021-11-06T15:18:14Z</time>
      </trkpt>
      <trkpt lat="42.84088" lon="0.25283">
        <ele>1931</ele>
        <time>2021-11-06T15:18:25Z</time>
      </trkpt>
      <trkpt lat="42.84084" lon="0.25266">
        <ele>1935</ele>
        <time>2021-11-06T15:18:36Z</time>
      </trkpt>
      <trkpt lat="42.84167" lon="0.25219">
        <ele>1933</ele>
        <time>2021-11-06T15:19:48Z</time>
      </trkpt>
      <trkpt lat="42.84187" lon="0.25202">
        <ele>1935</ele>
        <time>2021-11-06T15:20:06Z</time>
      </trkpt>
      <trkpt lat="42.84195" lon="0.25198">
        <ele>1934</ele>
        <time>2021-11-06T15:20:13Z</time>
      </trkpt>
      <trkpt lat="42.84203" lon="0.252">
        <ele>1931</ele>
        <time>2021-11-06T15:20:20Z</time>
      </trkpt>
      <trkpt lat="42.84212" lon="0.25206">
        <ele>1925</ele>
        <time>2021-11-06T15:20:28Z</time>
      </trkpt>
      <trkpt lat="42.84223" lon="0.25206">
        <ele>1921</ele>
        <time>2021-11-06T15:20:37Z</time>
      </trkpt>
      <trkpt lat="42.84231" lon="0.25196">
        <ele>1922</ele>
        <time>2021-11-06T15:20:45Z</time>
      </trkpt>
      <trkpt lat="42.84261" lon="0.25174">
        <ele>1923</ele>
        <time>2021-11-06T15:21:13Z</time>
      </trkpt>
      <trkpt lat="42.84279" lon="0.25163">
        <ele>1927</ele>
        <time>2021-11-06T15:21:28Z</time>
      </trkpt>
      <trkpt lat="42.8441" lon="0.25128">
        <ele>1941</ele>
        <time>2021-11-06T15:23:15Z</time>
      </trkpt>
      <trkpt lat="42.84447" lon="0.25116">
        <ele>1945</ele>
        <time>2021-11-06T15:23:46Z</time>
      </trkpt>
      <trkpt lat="42.84457" lon="0.25121">
        <ele>1943</ele>
        <time>2021-11-06T15:23:54Z</time>
      </trkpt>
      <trkpt lat="42.84478" lon="0.25133">
        <ele>1940</ele>
        <time>2021-11-06T15:24:12Z</time>
      </trkpt>
      <trkpt lat="42.84483" lon="0.25123">
        <ele>1943</ele>
        <time>2021-11-06T15:24:20Z</time>
      </trkpt>
      <trkpt lat="42.84512" lon="0.25095">
        <ele>1951</ele>
        <time>2021-11-06T15:24:48Z</time>
      </trkpt>
      <trkpt lat="42.84519" lon="0.25092">
        <ele>1953</ele>
        <time>2021-11-06T15:24:54Z</time>
      </trkpt>
      <trkpt lat="42.84525" lon="0.25095">
        <ele>1955</ele>
        <time>2021-11-06T15:24:59Z</time>
      </trkpt>
      <trkpt lat="42.84551" lon="0.2526">
        <ele>1955</ele>
        <time>2021-11-06T15:26:38Z</time>
      </trkpt>
      <trkpt lat="42.84577" lon="0.2536">
        <ele>1972</ele>
        <time>2021-11-06T15:27:40Z</time>
      </trkpt>
      <trkpt lat="42.84588" lon="0.25413">
        <ele>1978</ele>
        <time>2021-11-06T15:28:13Z</time>
      </trkpt>
      <trkpt lat="42.84607" lon="0.25473">
        <ele>1987</ele>
        <time>2021-11-06T15:28:51Z</time>
      </trkpt>
      <trkpt lat="42.84617" lon="0.25489">
        <ele>1993</ele>
        <time>2021-11-06T15:29:03Z</time>
      </trkpt>
      <trkpt lat="42.84625" lon="0.25507">
        <ele>1996</ele>
        <time>2021-11-06T15:29:16Z</time>
      </trkpt>
      <trkpt lat="42.84649" lon="0.25587">
        <ele>2003</ele>
        <time>2021-11-06T15:30:07Z</time>
      </trkpt>
      <trkpt lat="42.84668" lon="0.25659">
        <ele>2013</ele>
        <time>2021-11-06T15:30:51Z</time>
      </trkpt>
      <trkpt lat="42.84688" lon="0.25713">
        <ele>2020</ele>
        <time>2021-11-06T15:31:27Z</time>
      </trkpt>
      <trkpt lat="42.84735" lon="0.25803">
        <ele>2037</ele>
        <time>2021-11-06T15:32:32Z</time>
      </trkpt>
      <trkpt lat="42.84751" lon="0.25827">
        <ele>2043</ele>
        <time>2021-11-06T15:32:51Z</time>
      </trkpt>
      <trkpt lat="42.84774" lon="0.25852">
        <ele>2042</ele>
        <time>2021-11-06T15:33:14Z</time>
      </trkpt>
      <trkpt lat="42.84792" lon="0.25856">
        <ele>2043</ele>
        <time>2021-11-06T15:33:29Z</time>
      </trkpt>
      <trkpt lat="42.84818" lon="0.25855">
        <ele>2046</ele>
        <time>2021-11-06T15:33:50Z</time>
      </trkpt>
      <trkpt lat="42.84831" lon="0.25848">
        <ele>2048</ele>
        <time>2021-11-06T15:34:01Z</time>
      </trkpt>
      <trkpt lat="42.84841" lon="0.25819">
        <ele>2052</ele>
        <time>2021-11-06T15:34:20Z</time>
      </trkpt>
      <trkpt lat="42.84848" lon="0.25809">
        <ele>2051</ele>
        <time>2021-11-06T15:34:28Z</time>
      </trkpt>
      <trkpt lat="42.84861" lon="0.25797">
        <ele>2050</ele>
        <time>2021-11-06T15:34:41Z</time>
      </trkpt>
      <trkpt lat="42.84867" lon="0.25789">
        <ele>2050</ele>
        <time>2021-11-06T15:34:47Z</time>
      </trkpt>
      <trkpt lat="42.8488" lon="0.2578">
        <ele>2048</ele>
        <time>2021-11-06T15:34:59Z</time>
      </trkpt>
      <trkpt lat="42.84888" lon="0.25777">
        <ele>2047</ele>
        <time>2021-11-06T15:35:06Z</time>
      </trkpt>
      <trkpt lat="42.84903" lon="0.25767">
        <ele>2045</ele>
        <time>2021-11-06T15:35:19Z</time>
      </trkpt>
      <trkpt lat="42.8493" lon="0.25757">
        <ele>2042</ele>
        <time>2021-11-06T15:35:41Z</time>
      </trkpt>
      <trkpt lat="42.84949" lon="0.25737">
        <ele>2045</ele>
        <time>2021-11-06T15:36:01Z</time>
      </trkpt>
      <trkpt lat="42.84961" lon="0.25731">
        <ele>2045</ele>
        <time>2021-11-06T15:36:11Z</time>
      </trkpt>
      <trkpt lat="42.84986" lon="0.25713">
        <ele>2046</ele>
        <time>2021-11-06T15:36:33Z</time>
      </trkpt>
      <trkpt lat="42.84994" lon="0.25703">
        <ele>2047</ele>
        <time>2021-11-06T15:36:42Z</time>
      </trkpt>
      <trkpt lat="42.85012" lon="0.25696">
        <ele>2049</ele>
        <time>2021-11-06T15:36:57Z</time>
      </trkpt>
      <trkpt lat="42.85027" lon="0.25692">
        <ele>2052</ele>
        <time>2021-11-06T15:37:09Z</time>
      </trkpt>
      <trkpt lat="42.85046" lon="0.25694">
        <ele>2053</ele>
        <time>2021-11-06T15:37:25Z</time>
      </trkpt>
      <trkpt lat="42.85048" lon="0.25696">
        <ele>2052</ele>
        <time>2021-11-06T15:37:27Z</time>
      </trkpt>
      <trkpt lat="42.8508" lon="0.25703">
        <ele>2052</ele>
        <time>2021-11-06T15:37:53Z</time>
      </trkpt>
      <trkpt lat="42.85104" lon="0.25714">
        <ele>2042</ele>
        <time>2021-11-06T15:38:13Z</time>
      </trkpt>
      <trkpt lat="42.85114" lon="0.25709">
        <ele>2041</ele>
        <time>2021-11-06T15:38:21Z</time>
      </trkpt>
      <trkpt lat="42.85127" lon="0.25691">
        <ele>2046</ele>
        <time>2021-11-06T15:38:36Z</time>
      </trkpt>
      <trkpt lat="42.85144" lon="0.25674">
        <ele>2051</ele>
        <time>2021-11-06T15:38:53Z</time>
      </trkpt>
      <trkpt lat="42.85158" lon="0.25666">
        <ele>2053</ele>
        <time>2021-11-06T15:39:05Z</time>
      </trkpt>
      <trkpt lat="42.85167" lon="0.25652">
        <ele>2056</ele>
        <time>2021-11-06T15:39:16Z</time>
      </trkpt>
      <trkpt lat="42.8519" lon="0.25635">
        <ele>2053</ele>
        <time>2021-11-06T15:39:37Z</time>
      </trkpt>
      <trkpt lat="42.85204" lon="0.25621">
        <ele>2051</ele>
        <time>2021-11-06T15:39:51Z</time>
      </trkpt>
      <trkpt lat="42.85212" lon="0.25619">
        <ele>2048</ele>
        <time>2021-11-06T15:39:57Z</time>
      </trkpt>
      <trkpt lat="42.85241" lon="0.25632">
        <ele>2033</ele>
        <time>2021-11-06T15:40:22Z</time>
      </trkpt>
      <trkpt lat="42.85245" lon="0.25628">
        <ele>2032</ele>
        <time>2021-11-06T15:40:26Z</time>
      </trkpt>
      <trkpt lat="42.85238" lon="0.25558">
        <ele>2040</ele>
        <time>2021-11-06T15:41:07Z</time>
      </trkpt>
      <trkpt lat="42.85225" lon="0.25462">
        <ele>2024</ele>
        <time>2021-11-06T15:42:05Z</time>
      </trkpt>
      <trkpt lat="42.85214" lon="0.25409">
        <ele>2017</ele>
        <time>2021-11-06T15:42:37Z</time>
      </trkpt>
      <trkpt lat="42.85213" lon="0.25395">
        <ele>2016</ele>
        <time>2021-11-06T15:42:45Z</time>
      </trkpt>
      <trkpt lat="42.85221" lon="0.25363">
        <ele>2005</ele>
        <time>2021-11-06T15:43:05Z</time>
      </trkpt>
      <trkpt lat="42.85229" lon="0.25341">
        <ele>1996</ele>
        <time>2021-11-06T15:43:20Z</time>
      </trkpt>
      <trkpt lat="42.85233" lon="0.25307">
        <ele>1990</ele>
        <time>2021-11-06T15:43:40Z</time>
      </trkpt>
      <trkpt lat="42.85243" lon="0.25276">
        <ele>1980</ele>
        <time>2021-11-06T15:44:00Z</time>
      </trkpt>
      <trkpt lat="42.85243" lon="0.25263">
        <ele>1979</ele>
        <time>2021-11-06T15:44:07Z</time>
      </trkpt>
      <trkpt lat="42.85267" lon="0.25162">
        <ele>1953</ele>
        <time>2021-11-06T15:45:10Z</time>
      </trkpt>
      <trkpt lat="42.85276" lon="0.2513">
        <ele>1947</ele>
        <time>2021-11-06T15:45:30Z</time>
      </trkpt>
      <trkpt lat="42.85288" lon="0.25095">
        <ele>1937</ele>
        <time>2021-11-06T15:45:52Z</time>
      </trkpt>
      <trkpt lat="42.85294" lon="0.25061">
        <ele>1934</ele>
        <time>2021-11-06T15:46:13Z</time>
      </trkpt>
      <trkpt lat="42.85303" lon="0.25042">
        <ele>1928</ele>
        <time>2021-11-06T15:46:26Z</time>
      </trkpt>
      <trkpt lat="42.85324" lon="0.24978">
        <ele>1918</ele>
        <time>2021-11-06T15:47:07Z</time>
      </trkpt>
      <trkpt lat="42.8533" lon="0.24949">
        <ele>1918</ele>
        <time>2021-11-06T15:47:25Z</time>
      </trkpt>
      <trkpt lat="42.85356" lon="0.24908">
        <ele>1909</ele>
        <time>2021-11-06T15:47:57Z</time>
      </trkpt>
      <trkpt lat="42.85387" lon="0.24868">
        <ele>1897</ele>
        <time>2021-11-06T15:48:31Z</time>
      </trkpt>
      <trkpt lat="42.85402" lon="0.24838">
        <ele>1892</ele>
        <time>2021-11-06T15:48:52Z</time>
      </trkpt>
      <trkpt lat="42.8542" lon="0.24826">
        <ele>1886</ele>
        <time>2021-11-06T15:49:08Z</time>
      </trkpt>
      <trkpt lat="42.85451" lon="0.24816">
        <ele>1881</ele>
        <time>2021-11-06T15:49:34Z</time>
      </trkpt>
      <trkpt lat="42.85465" lon="0.24808">
        <ele>1880</ele>
        <time>2021-11-06T15:49:46Z</time>
      </trkpt>
      <trkpt lat="42.85471" lon="0.24789">
        <ele>1881</ele>
        <time>2021-11-06T15:49:58Z</time>
      </trkpt>
      <trkpt lat="42.85487" lon="0.24761">
        <ele>1883</ele>
        <time>2021-11-06T15:50:19Z</time>
      </trkpt>
      <trkpt lat="42.85497" lon="0.24732">
        <ele>1882</ele>
        <time>2021-11-06T15:50:38Z</time>
      </trkpt>
      <trkpt lat="42.85531" lon="0.24692">
        <ele>1874</ele>
        <time>2021-11-06T15:51:14Z</time>
      </trkpt>
      <trkpt lat="42.85592" lon="0.24673">
        <ele>1865</ele>
        <time>2021-11-06T15:52:04Z</time>
      </trkpt>
      <trkpt lat="42.85595" lon="0.24694">
        <ele>1864</ele>
        <time>2021-11-06T15:52:16Z</time>
      </trkpt>
      <trkpt lat="42.85603" lon="0.24715">
        <ele>1863</ele>
        <time>2021-11-06T15:52:30Z</time>
      </trkpt>
      <trkpt lat="42.85612" lon="0.24725">
        <ele>1862</ele>
        <time>2021-11-06T15:52:40Z</time>
      </trkpt>
      <trkpt lat="42.8563" lon="0.24764">
        <ele>1859</ele>
        <time>2021-11-06T15:53:07Z</time>
      </trkpt>
      <trkpt lat="42.8564" lon="0.2479">
        <ele>1857</ele>
        <time>2021-11-06T15:53:24Z</time>
      </trkpt>
      <trkpt lat="42.85656" lon="0.24871">
        <ele>1856</ele>
        <time>2021-11-06T15:54:13Z</time>
      </trkpt>
      <trkpt lat="42.85655" lon="0.2489">
        <ele>1856</ele>
        <time>2021-11-06T15:54:24Z</time>
      </trkpt>
      <trkpt lat="42.85651" lon="0.24913">
        <ele>1856</ele>
        <time>2021-11-06T15:54:38Z</time>
      </trkpt>
      <trkpt lat="42.85637" lon="0.24938">
        <ele>1854</ele>
        <time>2021-11-06T15:54:57Z</time>
      </trkpt>
      <trkpt lat="42.85641" lon="0.24963">
        <ele>1854</ele>
        <time>2021-11-06T15:55:12Z</time>
      </trkpt>
      <trkpt lat="42.85643" lon="0.24998">
        <ele>1854</ele>
        <time>2021-11-06T15:55:32Z</time>
      </trkpt>
      <trkpt lat="42.85656" lon="0.25033">
        <ele>1854</ele>
        <time>2021-11-06T15:55:55Z</time>
      </trkpt>
      <trkpt lat="42.85652" lon="0.25047">
        <ele>1852</ele>
        <time>2021-11-06T15:56:04Z</time>
      </trkpt>
      <trkpt lat="42.85654" lon="0.25065">
        <ele>1852</ele>
        <time>2021-11-06T15:56:15Z</time>
      </trkpt>
      <trkpt lat="42.85652" lon="0.25082">
        <ele>1850</ele>
        <time>2021-11-06T15:56:25Z</time>
      </trkpt>
      <trkpt lat="42.85652" lon="0.25101">
        <ele>1846</ele>
        <time>2021-11-06T15:56:36Z</time>
      </trkpt>
      <trkpt lat="42.85654" lon="0.25113">
        <ele>1844</ele>
        <time>2021-11-06T15:56:43Z</time>
      </trkpt>
      <trkpt lat="42.85656" lon="0.25135">
        <ele>1839</ele>
        <time>2021-11-06T15:56:56Z</time>
      </trkpt>
      <trkpt lat="42.85664" lon="0.25157">
        <ele>1834</ele>
        <time>2021-11-06T15:57:11Z</time>
      </trkpt>
      <trkpt lat="42.85665" lon="0.2517">
        <ele>1830</ele>
        <time>2021-11-06T15:57:18Z</time>
      </trkpt>
      <trkpt lat="42.85669" lon="0.25181">
        <ele>1828</ele>
        <time>2021-11-06T15:57:26Z</time>
      </trkpt>
      <trkpt lat="42.85671" lon="0.25198">
        <ele>1823</ele>
        <time>2021-11-06T15:57:36Z</time>
      </trkpt>
      <trkpt lat="42.85677" lon="0.25204">
        <ele>1823</ele>
        <time>2021-11-06T15:57:42Z</time>
      </trkpt>
      <trkpt lat="42.85687" lon="0.25227">
        <ele>1818</ele>
        <time>2021-11-06T15:57:57Z</time>
      </trkpt>
      <trkpt lat="42.85692" lon="0.25231">
        <ele>1817</ele>
        <time>2021-11-06T15:58:02Z</time>
      </trkpt>
      <trkpt lat="42.85693" lon="0.2524">
        <ele>1814</ele>
        <time>2021-11-06T15:58:07Z</time>
      </trkpt>
      <trkpt lat="42.85698" lon="0.25247">
        <ele>1813</ele>
        <time>2021-11-06T15:58:13Z</time>
      </trkpt>
      <trkpt lat="42.85709" lon="0.25251">
        <ele>1813</ele>
        <time>2021-11-06T15:58:22Z</time>
      </trkpt>
      <trkpt lat="42.85746" lon="0.25311">
        <ele>1794</ele>
        <time>2021-11-06T15:59:08Z</time>
      </trkpt>
      <trkpt lat="42.85764" lon="0.25352">
        <ele>1785</ele>
        <time>2021-11-06T15:59:36Z</time>
      </trkpt>
      <trkpt lat="42.85773" lon="0.25381">
        <ele>1780</ele>
        <time>2021-11-06T15:59:55Z</time>
      </trkpt>
      <trkpt lat="42.85778" lon="0.25406">
        <ele>1773</ele>
        <time>2021-11-06T16:00:10Z</time>
      </trkpt>
      <trkpt lat="42.85796" lon="0.25446">
        <ele>1766</ele>
        <time>2021-11-06T16:00:37Z</time>
      </trkpt>
      <trkpt lat="42.858" lon="0.2547">
        <ele>1760</ele>
        <time>2021-11-06T16:00:52Z</time>
      </trkpt>
      <trkpt lat="42.85809" lon="0.25485">
        <ele>1753</ele>
        <time>2021-11-06T16:01:03Z</time>
      </trkpt>
      <trkpt lat="42.85818" lon="0.25495">
        <ele>1747</ele>
        <time>2021-11-06T16:01:13Z</time>
      </trkpt>
      <trkpt lat="42.85829" lon="0.25502">
        <ele>1741</ele>
        <time>2021-11-06T16:01:22Z</time>
      </trkpt>
      <trkpt lat="42.85835" lon="0.2552">
        <ele>1736</ele>
        <time>2021-11-06T16:01:34Z</time>
      </trkpt>
      <trkpt lat="42.85866" lon="0.25543">
        <ele>1733</ele>
        <time>2021-11-06T16:02:02Z</time>
      </trkpt>
      <trkpt lat="42.85872" lon="0.25561">
        <ele>1727</ele>
        <time>2021-11-06T16:02:14Z</time>
      </trkpt>
      <trkpt lat="42.85878" lon="0.2557">
        <ele>1724</ele>
        <time>2021-11-06T16:02:21Z</time>
      </trkpt>
      <trkpt lat="42.85889" lon="0.25575">
        <ele>1722</ele>
        <time>2021-11-06T16:02:30Z</time>
      </trkpt>
      <trkpt lat="42.85897" lon="0.25589">
        <ele>1716</ele>
        <time>2021-11-06T16:02:41Z</time>
      </trkpt>
      <trkpt lat="42.85898" lon="0.25601">
        <ele>1713</ele>
        <time>2021-11-06T16:02:48Z</time>
      </trkpt>
      <trkpt lat="42.85901" lon="0.25611">
        <ele>1710</ele>
        <time>2021-11-06T16:02:54Z</time>
      </trkpt>
      <trkpt lat="42.85905" lon="0.25614">
        <ele>1709</ele>
        <time>2021-11-06T16:02:58Z</time>
      </trkpt>
      <trkpt lat="42.85908" lon="0.25624">
        <ele>1705</ele>
        <time>2021-11-06T16:03:04Z</time>
      </trkpt>
      <trkpt lat="42.85908" lon="0.25637">
        <ele>1702</ele>
        <time>2021-11-06T16:03:12Z</time>
      </trkpt>
      <trkpt lat="42.85917" lon="0.25686">
        <ele>1685</ele>
        <time>2021-11-06T16:03:41Z</time>
      </trkpt>
      <trkpt lat="42.85924" lon="0.25696">
        <ele>1685</ele>
        <time>2021-11-06T16:03:49Z</time>
      </trkpt>
      <trkpt lat="42.85929" lon="0.25707">
        <ele>1684</ele>
        <time>2021-11-06T16:03:57Z</time>
      </trkpt>
      <trkpt lat="42.85932" lon="0.25738">
        <ele>1677</ele>
        <time>2021-11-06T16:04:15Z</time>
      </trkpt>
      <trkpt lat="42.8594" lon="0.25773">
        <ele>1669</ele>
        <time>2021-11-06T16:04:37Z</time>
      </trkpt>
      <trkpt lat="42.85941" lon="0.25785">
        <ele>1666</ele>
        <time>2021-11-06T16:04:44Z</time>
      </trkpt>
      <trkpt lat="42.85951" lon="0.25805">
        <ele>1664</ele>
        <time>2021-11-06T16:04:58Z</time>
      </trkpt>
      <trkpt lat="42.85952" lon="0.25826">
        <ele>1659</ele>
        <time>2021-11-06T16:05:11Z</time>
      </trkpt>
      <trkpt lat="42.8596" lon="0.25852">
        <ele>1657</ele>
        <time>2021-11-06T16:05:27Z</time>
      </trkpt>
      <trkpt lat="42.85956" lon="0.25878">
        <ele>1651</ele>
        <time>2021-11-06T16:05:43Z</time>
      </trkpt>
      <trkpt lat="42.8595" lon="0.25892">
        <ele>1646</ele>
        <time>2021-11-06T16:05:52Z</time>
      </trkpt>
      <trkpt lat="42.85947" lon="0.25907">
        <ele>1642</ele>
        <time>2021-11-06T16:06:01Z</time>
      </trkpt>
      <trkpt lat="42.85939" lon="0.25917">
        <ele>1637</ele>
        <time>2021-11-06T16:06:10Z</time>
      </trkpt>
      <trkpt lat="42.85934" lon="0.25947">
        <ele>1633</ele>
        <time>2021-11-06T16:06:28Z</time>
      </trkpt>
      <trkpt lat="42.8592" lon="0.25966">
        <ele>1625</ele>
        <time>2021-11-06T16:06:44Z</time>
      </trkpt>
      <trkpt lat="42.85878" lon="0.26067">
        <ele>1612</ele>
        <time>2021-11-06T16:07:52Z</time>
      </trkpt>
      <trkpt lat="42.85856" lon="0.26092">
        <ele>1604</ele>
        <time>2021-11-06T16:08:15Z</time>
      </trkpt>
      <trkpt lat="42.85835" lon="0.26144">
        <ele>1600</ele>
        <time>2021-11-06T16:08:50Z</time>
      </trkpt>
      <trkpt lat="42.85826" lon="0.26176">
        <ele>1599</ele>
        <time>2021-11-06T16:09:10Z</time>
      </trkpt>
      <trkpt lat="42.85814" lon="0.26196">
        <ele>1595</ele>
        <time>2021-11-06T16:09:25Z</time>
      </trkpt>
      <trkpt lat="42.85811" lon="0.26216">
        <ele>1595</ele>
        <time>2021-11-06T16:09:37Z</time>
      </trkpt>
      <trkpt lat="42.85812" lon="0.26293">
        <ele>1600</ele>
        <time>2021-11-06T16:10:22Z</time>
      </trkpt>
      <trkpt lat="42.85795" lon="0.26331">
        <ele>1593</ele>
        <time>2021-11-06T16:10:48Z</time>
      </trkpt>
      <trkpt lat="42.8579" lon="0.26354">
        <ele>1590</ele>
        <time>2021-11-06T16:11:03Z</time>
      </trkpt>
      <trkpt lat="42.85781" lon="0.26376">
        <ele>1585</ele>
        <time>2021-11-06T16:11:17Z</time>
      </trkpt>
      <trkpt lat="42.85772" lon="0.26415">
        <ele>1579</ele>
        <time>2021-11-06T16:11:41Z</time>
      </trkpt>
      <trkpt lat="42.8577" lon="0.26442">
        <ele>1577</ele>
        <time>2021-11-06T16:11:57Z</time>
      </trkpt>
      <trkpt lat="42.85766" lon="0.26463">
        <ele>1574</ele>
        <time>2021-11-06T16:12:10Z</time>
      </trkpt>
      <trkpt lat="42.85759" lon="0.26517">
        <ele>1569</ele>
        <time>2021-11-06T16:12:42Z</time>
      </trkpt>
      <trkpt lat="42.85754" lon="0.26546">
        <ele>1568</ele>
        <time>2021-11-06T16:13:00Z</time>
      </trkpt>
      <trkpt lat="42.85755" lon="0.26554">
        <ele>1568</ele>
        <time>2021-11-06T16:13:04Z</time>
      </trkpt>
      <trkpt lat="42.8575" lon="0.26564">
        <ele>1566</ele>
        <time>2021-11-06T16:13:12Z</time>
      </trkpt>
      <trkpt lat="42.8575" lon="0.26575">
        <ele>1567</ele>
        <time>2021-11-06T16:13:18Z</time>
      </trkpt>
      <trkpt lat="42.85745" lon="0.26591">
        <ele>1564</ele>
        <time>2021-11-06T16:13:28Z</time>
      </trkpt>
      <trkpt lat="42.85744" lon="0.26619">
        <ele>1562</ele>
        <time>2021-11-06T16:13:45Z</time>
      </trkpt>
      <trkpt lat="42.85739" lon="0.2664">
        <ele>1559</ele>
        <time>2021-11-06T16:13:58Z</time>
      </trkpt>
      <trkpt lat="42.85729" lon="0.26663">
        <ele>1554</ele>
        <time>2021-11-06T16:14:13Z</time>
      </trkpt>
      <trkpt lat="42.85727" lon="0.26672">
        <ele>1552</ele>
        <time>2021-11-06T16:14:19Z</time>
      </trkpt>
      <trkpt lat="42.85732" lon="0.26688">
        <ele>1554</ele>
        <time>2021-11-06T16:14:29Z</time>
      </trkpt>
      <trkpt lat="42.85732" lon="0.26695">
        <ele>1554</ele>
        <time>2021-11-06T16:14:33Z</time>
      </trkpt>
      <trkpt lat="42.85719" lon="0.26701">
        <ele>1548</ele>
        <time>2021-11-06T16:14:44Z</time>
      </trkpt>
      <trkpt lat="42.85712" lon="0.26708">
        <ele>1545</ele>
        <time>2021-11-06T16:14:51Z</time>
      </trkpt>
      <trkpt lat="42.85708" lon="0.26717">
        <ele>1543</ele>
        <time>2021-11-06T16:14:57Z</time>
      </trkpt>
      <trkpt lat="42.85699" lon="0.26723">
        <ele>1539</ele>
        <time>2021-11-06T16:15:05Z</time>
      </trkpt>
      <trkpt lat="42.85693" lon="0.26731">
        <ele>1536</ele>
        <time>2021-11-06T16:15:12Z</time>
      </trkpt>
      <trkpt lat="42.85686" lon="0.26758">
        <ele>1532</ele>
        <time>2021-11-06T16:15:29Z</time>
      </trkpt>
      <trkpt lat="42.85679" lon="0.26779">
        <ele>1529</ele>
        <time>2021-11-06T16:15:42Z</time>
      </trkpt>
      <trkpt lat="42.85665" lon="0.26799">
        <ele>1523</ele>
        <time>2021-11-06T16:15:59Z</time>
      </trkpt>
      <trkpt lat="42.85658" lon="0.26816">
        <ele>1521</ele>
        <time>2021-11-06T16:16:10Z</time>
      </trkpt>
      <trkpt lat="42.85629" lon="0.26841">
        <ele>1511</ele>
        <time>2021-11-06T16:16:37Z</time>
      </trkpt>
      <trkpt lat="42.85613" lon="0.26859">
        <ele>1505</ele>
        <time>2021-11-06T16:16:54Z</time>
      </trkpt>
      <trkpt lat="42.856" lon="0.26878">
        <ele>1500</ele>
        <time>2021-11-06T16:17:09Z</time>
      </trkpt>
      <trkpt lat="42.85591" lon="0.26912">
        <ele>1495</ele>
        <time>2021-11-06T16:17:31Z</time>
      </trkpt>
      <trkpt lat="42.85583" lon="0.26927">
        <ele>1492</ele>
        <time>2021-11-06T16:17:41Z</time>
      </trkpt>
      <trkpt lat="42.85557" lon="0.26955">
        <ele>1485</ele>
        <time>2021-11-06T16:18:08Z</time>
      </trkpt>
      <trkpt lat="42.85546" lon="0.26974">
        <ele>1481</ele>
        <time>2021-11-06T16:18:22Z</time>
      </trkpt>
      <trkpt lat="42.85537" lon="0.26984">
        <ele>1477</ele>
        <time>2021-11-06T16:18:31Z</time>
      </trkpt>
      <trkpt lat="42.85514" lon="0.27043">
        <ele>1471</ele>
        <time>2021-11-06T16:19:11Z</time>
      </trkpt>
      <trkpt lat="42.8549" lon="0.27078">
        <ele>1463</ele>
        <time>2021-11-06T16:19:39Z</time>
      </trkpt>
      <trkpt lat="42.85475" lon="0.27094">
        <ele>1459</ele>
        <time>2021-11-06T16:19:54Z</time>
      </trkpt>
      <trkpt lat="42.85447" lon="0.27131">
        <ele>1454</ele>
        <time>2021-11-06T16:20:25Z</time>
      </trkpt>
      <trkpt lat="42.85436" lon="0.27148">
        <ele>1451</ele>
        <time>2021-11-06T16:20:39Z</time>
      </trkpt>
      <trkpt lat="42.85418" lon="0.27193">
        <ele>1450</ele>
        <time>2021-11-06T16:21:09Z</time>
      </trkpt>
      <trkpt lat="42.85383" lon="0.27241">
        <ele>1445</ele>
        <time>2021-11-06T16:21:48Z</time>
      </trkpt>
      <trkpt lat="42.8535" lon="0.27276">
        <ele>1438</ele>
        <time>2021-11-06T16:22:22Z</time>
      </trkpt>
      <trkpt lat="42.85333" lon="0.27306">
        <ele>1440</ele>
        <time>2021-11-06T16:22:44Z</time>
      </trkpt>
      <trkpt lat="42.85283" lon="0.27371">
        <ele>1435</ele>
        <time>2021-11-06T16:23:39Z</time>
      </trkpt>
      <trkpt lat="42.85264" lon="0.27402">
        <ele>1432</ele>
        <time>2021-11-06T16:24:03Z</time>
      </trkpt>
      <trkpt lat="42.8526" lon="0.27411">
        <ele>1431</ele>
        <time>2021-11-06T16:24:09Z</time>
      </trkpt>
      <trkpt lat="42.85226" lon="0.27462">
        <ele>1429</ele>
        <time>2021-11-06T16:24:50Z</time>
      </trkpt>
      <trkpt lat="42.85189" lon="0.27527">
        <ele>1426</ele>
        <time>2021-11-06T16:25:38Z</time>
      </trkpt>
      <trkpt lat="42.8518" lon="0.27545">
        <ele>1424</ele>
        <time>2021-11-06T16:25:51Z</time>
      </trkpt>
      <trkpt lat="42.85157" lon="0.27587">
        <ele>1418</ele>
        <time>2021-11-06T16:26:22Z</time>
      </trkpt>
      <trkpt lat="42.85152" lon="0.27599">
        <ele>1415</ele>
        <time>2021-11-06T16:26:30Z</time>
      </trkpt>
      <trkpt lat="42.85138" lon="0.27621">
        <ele>1409</ele>
        <time>2021-11-06T16:26:47Z</time>
      </trkpt>
      <trkpt lat="42.8513" lon="0.27639">
        <ele>1406</ele>
        <time>2021-11-06T16:26:59Z</time>
      </trkpt>
      <trkpt lat="42.85125" lon="0.27645">
        <ele>1404</ele>
        <time>2021-11-06T16:27:05Z</time>
      </trkpt>
      <trkpt lat="42.85133" lon="0.27598">
        <ele>1406</ele>
        <time>2021-11-06T16:27:33Z</time>
      </trkpt>
    </trkseg>
  </trk>
</gpx>